Time,TemperatureF,DewpointF,PressureIn,WindDirection,WindDirectionDegrees,WindSpeedMPH,WindSpeedGustMPH,Humidity,HourlyPrecipIn,Conditions,Clouds,dailyrainin,SolarRadiationWatts/m^2,SoftwareType,DateUTC
2013-03-05 00:00:00,37.1,35.0,30.11,NNW,328,11.5,11.5,92,0.00,RA,,0.00,0.0,WeatherDisplay:10.37,2013-03-05 06:00:00,
2013-03-05 00:05:00,37.1,35.0,30.11,WNW,286,9.2,9.2,92,0.00,CLR,,0.00,0.0,WeatherDisplay:10.37,2013-03-05 06:05:00,
2013-03-05 00:10:00,37.0,34.9,30.11,NNW,329,5.0,5.0,92,0.00,CLR,,0.00,0.0,WeatherDisplay:10.37,2013-03-05 06:10:00,
2013-03-05 00:15:00,36.9,34.8,30.12,NNW,337,3.5,3.5,92,0.00,CLR,,0.00,0.0,WeatherDisplay:10.37,2013-03-05 06:15:00,
2013-03-05 00:20:00,36.8,34.7,30.11,NNW,338,10.4,10.4,92,0.00,CLR,,0.00,0.0,WeatherDisplay:10.37,2013-03-05 06:20:00,
2013-03-05 00:25:00,36.8,35.0,30.12,NW,305,10.4,10.4,93,0.00,CLR,,0.00,0.0,WeatherDisplay:10.37,2013-03-05 06:25:00,
2013-03-05 00:30:00,36.8,35.0,30.12,NW,305,6.9,6.9,93,0.00,CLR,,0.00,0.0,WeatherDisplay:10.37,2013-03-05 06:30:00,
2013-03-05 00:35:00,36.9,35.1,30.12,WNW,299,11.5,11.5,93,0.00,CLR,,0.00,0.0,WeatherDisplay:10.37,2013-03-05 06:35:00,
2013-03-05 00:40:00,36.9,35.1,30.13,WNW,294,6.0,6.0,93,0.00,CLR,,0.00,0.0,WeatherDisplay:10.37,2013-03-05 06:40:00,
2013-03-05 00:45:00,36.9,34.8,30.12,NW,313,11.5,11.5,92,0.00,CLR,,0.00,0.0,WeatherDisplay:10.37,2013-03-05 06:45:00,
2013-03-05 00:50:00,36.9,33.7,30.11,NNW,348,10.0,10.0,88,0.00,CLR,,0.00,0.0,WeatherDisplay:10.37,2013-03-05 06:50:00,
2013-03-05 00:55:00,37.2,32.5,30.11,NW,326,15.0,15.0,83,0.00,CLR,,0.00,0.0,WeatherDisplay:10.37,2013-03-05 06:55:00,
2013-03-05 01:00:00,37.5,31.3,30.12,NW,311,15.0,15.0,78,0.00,CLR,,0.00,0.0,WeatherDisplay:10.37,2013-03-05 07:00:00,
2013-03-05 01:05:00,37.8,30.9,30.12,NW,312,9.2,9.2,76,0.00,CLR,,0.00,0.0,WeatherDisplay:10.37,2013-03-05 07:05:00,
2013-03-05 01:10:00,37.8,30.6,30.12,North,351,11.5,11.5,75,0.00,CLR,,0.00,0.0,WeatherDisplay:10.37,2013-03-05 07:10:00,
2013-03-05 01:15:00,37.7,29.8,30.13,NNW,345,8.1,8.1,73,0.00,CLR,,0.00,0.0,WeatherDisplay:10.37,2013-03-05 07:15:00,
2013-03-05 01:20:00,37.7,28.4,30.13,NW,307,23.0,23.0,69,0.00,,,0.00,0.0,WeatherDisplay:10.37,2013-03-05 07:20:00,
2013-03-05 01:25:00,37.6,28.0,30.12,NNW,333,11.5,11.5,68,0.00,CLR,,0.00,0.0,WeatherDisplay:10.37,2013-03-05 07:25:00,
2013-03-05 01:30:00,37.4,27.1,30.13,NW,314,19.6,19.6,66,0.00,,,0.00,0.0,WeatherDisplay:10.37,2013-03-05 07:30:00,
2013-03-05 01:35:00,37.2,26.9,30.14,WNW,290,17.3,17.3,66,0.00,,,0.00,0.0,WeatherDisplay:10.37,2013-03-05 07:35:00,
2013-03-05 01:40:00,37.0,26.3,30.13,North,350,19.6,19.6,65,0.00,,,0.00,0.0,WeatherDisplay:10.37,2013-03-05 07:40:00,
2013-03-05 01:45:00,36.7,26.4,30.14,NW,305,19.6,19.6,66,0.00,,,0.00,0.0,WeatherDisplay:10.37,2013-03-05 07:45:00,
2013-03-05 01:50:00,36.5,26.6,30.14,NW,323,11.5,11.5,67,0.00,CLR,,0.00,0.0,WeatherDisplay:10.37,2013-03-05 07:50:00,
2013-03-05 01:55:00,36.3,26.4,30.15,NNW,335,19.0,19.0,67,0.00,CLR,,0.00,0.0,WeatherDisplay:10.37,2013-03-05 07:55:00,
2013-03-05 02:00:00,36.2,26.3,30.15,NE,37,12.7,12.7,67,0.00,,,0.00,0.0,WeatherDisplay:10.37,2013-03-05 08:00:00,
2013-03-05 02:05:00,36.1,26.2,30.16,NNW,333,23.0,23.0,67,0.00,,,0.00,0.0,WeatherDisplay:10.37,2013-03-05 08:05:00,
2013-03-05 02:10:00,36.0,26.5,30.16,NW,317,16.1,16.1,68,0.00,,,0.00,0.0,WeatherDisplay:10.37,2013-03-05 08:10:00,
2013-03-05 02:15:00,35.8,26.3,30.16,WNW,290,20.7,20.7,68,0.00,,,0.00,0.0,WeatherDisplay:10.37,2013-03-05 08:15:00,
2013-03-05 02:20:00,35.7,26.5,30.17,NW,318,16.1,16.1,69,0.00,CLR,,0.00,0.0,WeatherDisplay:10.37,2013-03-05 08:20:00,
2013-03-05 02:25:00,35.6,26.4,30.17,NNW,333,12.0,12.0,69,0.00,,,0.00,0.0,WeatherDisplay:10.37,2013-03-05 08:25:00,
2013-03-05 02:30:00,35.5,26.0,30.18,NNW,343,15.0,15.0,68,0.00,,,0.00,0.0,WeatherDisplay:10.37,2013-03-05 08:30:00,
2013-03-05 02:35:00,35.3,25.1,30.19,NW,325,20.0,20.0,66,0.00,,,0.00,0.0,WeatherDisplay:10.37,2013-03-05 08:35:00,
2013-03-05 02:40:00,35.2,23.1,30.19,NW,325,20.7,20.7,61,0.00,,,0.00,0.0,WeatherDisplay:10.37,2013-03-05 08:40:00,
2013-03-05 02:45:00,35.1,22.6,30.20,NW,316,18.4,18.4,60,0.00,,,0.00,0.0,WeatherDisplay:10.37,2013-03-05 08:45:00,
2013-03-05 02:50:00,34.8,21.9,30.20,NNW,331,19.6,19.6,59,0.00,,,0.00,0.0,WeatherDisplay:10.37,2013-03-05 08:50:00,
2013-03-05 02:55:00,34.6,21.7,30.20,NNW,346,19.6,19.6,59,0.00,,,0.00,0.0,WeatherDisplay:10.37,2013-03-05 08:55:00,
2013-03-05 03:00:00,34.4,20.7,30.20,NNW,332,11.5,11.5,57,0.00,CLR,,0.00,0.0,WeatherDisplay:10.37,2013-03-05 09:00:00,
2013-03-05 03:05:00,34.1,20.4,30.21,WNW,299,21.9,21.9,57,0.00,,,0.00,0.0,WeatherDisplay:10.37,2013-03-05 09:05:00,
2013-03-05 03:10:00,33.9,19.8,30.21,West,275,19.6,19.6,56,0.00,,,0.00,0.0,WeatherDisplay:10.37,2013-03-05 09:10:00,
2013-03-05 03:15:00,33.7,20.1,30.22,WNW,302,21.9,21.9,57,0.00,,,0.00,0.0,WeatherDisplay:10.37,2013-03-05 09:15:00,
2013-03-05 03:20:00,33.5,20.3,30.22,NNW,333,12.7,12.7,58,0.00,CLR,,0.00,0.0,WeatherDisplay:10.37,2013-03-05 09:20:00,
2013-03-05 03:25:00,33.3,20.5,30.22,NW,307,13.0,13.0,59,0.00,CLR,,0.00,0.0,WeatherDisplay:10.37,2013-03-05 09:25:00,
2013-03-05 03:30:00,33.1,20.3,30.23,NNW,327,12.7,12.7,59,0.00,CLR,,0.00,0.0,WeatherDisplay:10.37,2013-03-05 09:30:00,
2013-03-05 03:35:00,33.0,20.2,30.23,NW,319,11.5,11.5,59,0.00,CLR,,0.00,0.0,WeatherDisplay:10.37,2013-03-05 09:35:00,
2013-03-05 03:40:00,32.8,20.8,30.23,North,5,11.5,11.5,61,0.00,CLR,,0.00,0.0,WeatherDisplay:10.37,2013-03-05 09:40:00,
2013-03-05 03:45:00,32.6,20.6,30.23,WNW,299,15.0,15.0,61,0.00,CLR,,0.00,0.0,WeatherDisplay:10.37,2013-03-05 09:45:00,
2013-03-05 03:50:00,32.5,20.9,30.23,NW,323,11.5,11.5,62,0.00,CLR,,0.00,0.0,WeatherDisplay:10.37,2013-03-05 09:50:00,
2013-03-05 03:55:00,32.3,21.1,30.23,NW,311,11.5,11.5,63,0.00,CLR,,0.00,0.0,WeatherDisplay:10.37,2013-03-05 09:55:00,
2013-03-05 04:00:00,32.1,21.7,30.24,NNW,330,10.4,10.4,65,0.00,CLR,,0.00,0.0,WeatherDisplay:10.37,2013-03-05 10:00:00,
2013-03-05 04:05:00,31.9,22.2,30.24,NW,313,9.2,9.2,67,0.00,CLR,,0.00,0.0,WeatherDisplay:10.37,2013-03-05 10:05:00,
2013-03-05 04:10:00,31.7,22.0,30.24,NW,315,11.5,11.5,67,0.00,CLR,,0.00,0.0,WeatherDisplay:10.37,2013-03-05 10:10:00,
2013-03-05 04:15:00,31.6,21.2,30.24,NNW,336,13.8,13.8,65,0.00,CLR,,0.00,0.0,WeatherDisplay:10.37,2013-03-05 10:15:00,
2013-03-05 04:20:00,31.6,20.1,30.24,NW,311,12.7,12.7,62,0.00,CLR,,0.00,0.0,WeatherDisplay:10.37,2013-03-05 10:20:00,
2013-03-05 04:25:00,31.6,19.7,30.25,WNW,293,19.6,19.6,61,0.00,,,0.00,0.0,WeatherDisplay:10.37,2013-03-05 10:25:00,
2013-03-05 04:30:00,31.5,19.6,30.26,NW,325,20.0,20.0,61,0.00,,,0.00,0.0,WeatherDisplay:10.37,2013-03-05 10:30:00,
2013-03-05 04:35:00,31.5,19.6,30.26,NNW,348,16.1,16.1,61,0.00,CLR,,0.00,0.0,WeatherDisplay:10.37,2013-03-05 10:35:00,
2013-03-05 04:40:00,31.3,19.4,30.26,North,351,16.1,16.1,61,0.00,CLR,,0.00,0.0,WeatherDisplay:10.37,2013-03-05 10:40:00,
2013-03-05 04:45:00,31.2,19.3,30.26,NW,309,17.3,17.3,61,0.00,,,0.00,0.0,WeatherDisplay:10.37,2013-03-05 10:45:00,
2013-03-05 04:50:00,31.0,19.5,30.26,NW,310,14.0,14.0,62,0.00,CLR,,0.00,0.0,WeatherDisplay:10.37,2013-03-05 10:50:00,
2013-03-05 04:55:00,30.8,19.3,30.26,NW,308,11.5,11.5,62,0.00,CLR,,0.00,0.0,WeatherDisplay:10.37,2013-03-05 10:55:00,
2013-03-05 05:00:00,30.8,19.7,30.27,NW,323,8.1,8.1,63,0.00,CLR,,0.00,0.0,WeatherDisplay:10.37,2013-03-05 11:00:00,
2013-03-05 05:05:00,30.6,19.5,30.26,NW,325,11.5,11.5,63,0.00,CLR,,0.00,0.0,WeatherDisplay:10.37,2013-03-05 11:05:00,
2013-03-05 05:10:00,30.5,19.0,30.26,NW,310,12.7,12.7,62,0.00,CLR,,0.00,0.0,WeatherDisplay:10.37,2013-03-05 11:10:00,
2013-03-05 05:15:00,30.5,19.0,30.26,NNW,341,5.8,5.8,62,0.00,CLR,,0.00,0.0,WeatherDisplay:10.37,2013-03-05 11:15:00,
2013-03-05 05:20:00,30.4,18.5,30.26,NNE,22,16.1,16.1,61,0.00,,,0.00,0.0,WeatherDisplay:10.37,2013-03-05 11:20:00,
2013-03-05 05:25:00,30.3,18.8,30.27,NNW,331,9.2,9.2,62,0.00,CLR,,0.00,0.0,WeatherDisplay:10.37,2013-03-05 11:25:00,
2013-03-05 05:30:00,30.1,19.0,30.27,WNW,288,10.4,10.4,63,0.00,CLR,,0.00,0.0,WeatherDisplay:10.37,2013-03-05 11:30:00,
2013-03-05 05:35:00,30.0,18.9,30.27,NW,323,12.0,12.0,63,0.00,CLR,,0.00,0.0,WeatherDisplay:10.37,2013-03-05 11:35:00,
2013-03-05 05:40:00,29.9,18.8,30.28,NW,316,6.9,6.9,63,0.00,CLR,,0.00,0.0,WeatherDisplay:10.37,2013-03-05 11:40:00,
2013-03-05 05:45:00,29.9,18.8,30.28,NNW,331,11.5,11.5,63,0.00,CLR,,0.00,0.0,WeatherDisplay:10.37,2013-03-05 11:45:00,
2013-03-05 05:50:00,29.8,19.1,30.28,NNW,331,8.1,8.1,64,0.00,CLR,,0.00,0.0,WeatherDisplay:10.37,2013-03-05 11:50:00,
2013-03-05 05:55:00,29.7,19.0,30.28,NW,312,5.8,5.8,64,0.00,CLR,,0.00,0.0,WeatherDisplay:10.37,2013-03-05 11:55:00,
2013-03-05 06:00:00,29.5,19.2,30.28,NNW,340,8.1,8.1,65,0.00,CLR,,0.00,0.0,WeatherDisplay:10.37,2013-03-05 12:00:00,
2013-03-05 06:05:00,29.4,19.1,30.28,NW,306,5.0,5.0,65,0.00,CLR,,0.00,0.0,WeatherDisplay:10.37,2013-03-05 12:05:00,
2013-03-05 06:10:00,29.4,19.1,30.28,WNW,298,5.8,5.8,65,0.00,CLR,,0.00,0.0,WeatherDisplay:10.37,2013-03-05 12:10:00,
2013-03-05 06:15:00,29.3,19.0,30.29,West,274,9.2,9.2,65,0.00,CLR,,0.00,0.0,WeatherDisplay:10.37,2013-03-05 12:15:00,
2013-03-05 06:20:00,29.2,19.2,30.29,NNW,331,10.4,10.4,66,0.00,CLR,,0.00,0.0,WeatherDisplay:10.37,2013-03-05 12:20:00,
2013-03-05 06:25:00,29.2,18.9,30.29,WNW,301,11.5,11.5,65,0.00,CLR,,0.00,0.0,WeatherDisplay:10.37,2013-03-05 12:25:00,
2013-03-05 06:30:00,29.2,18.9,30.29,WNW,298,10.4,10.4,65,0.00,CLR,,0.00,0.0,WeatherDisplay:10.37,2013-03-05 12:30:00,
2013-03-05 06:35:00,29.1,19.2,30.29,NW,305,6.9,6.9,66,0.00,CLR,,0.00,0.0,WeatherDisplay:10.37,2013-03-05 12:35:00,
2013-03-05 06:40:00,28.9,19.3,30.29,West,280,9.2,9.2,67,0.00,CLR,,0.00,0.0,WeatherDisplay:10.37,2013-03-05 12:40:00,
2013-03-05 06:45:00,28.8,19.6,30.29,NW,309,10.4,10.4,68,0.00,CLR,,0.00,0.0,WeatherDisplay:10.37,2013-03-05 12:45:00,
2013-03-05 06:50:00,28.7,19.8,30.29,WNW,298,9.0,9.0,69,0.00,CLR,,0.00,0.0,WeatherDisplay:10.37,2013-03-05 12:50:00,
2013-03-05 06:55:00,28.5,19.6,30.29,WNW,302,11.0,11.0,69,0.00,CLR,,0.00,5.0,WeatherDisplay:10.37,2013-03-05 12:55:00,
2013-03-05 07:00:00,28.5,19.6,30.29,WNW,284,9.2,9.2,69,0.00,CLR,,0.00,7.0,WeatherDisplay:10.37,2013-03-05 13:00:00,
2013-03-05 07:05:00,28.4,19.9,30.29,WNW,288,5.8,5.8,70,0.00,FEW,,0.00,11.0,WeatherDisplay:10.37,2013-03-05 13:05:00,
2013-03-05 07:10:00,28.4,19.9,30.29,NW,311,8.1,8.1,70,0.00,SCT,,0.00,16.0,WeatherDisplay:10.37,2013-03-05 13:10:00,
2013-03-05 07:15:00,28.4,19.9,30.29,NW,322,6.9,6.9,70,0.00,SCT,,0.00,19.0,WeatherDisplay:10.37,2013-03-05 13:15:00,
2013-03-05 07:20:00,28.4,20.2,30.29,NW,313,9.2,9.2,71,0.00,BKN,,0.00,23.0,WeatherDisplay:10.37,2013-03-05 13:20:00,
2013-03-05 07:25:00,28.5,20.0,30.29,WNW,286,8.1,8.1,70,0.00,BKN,,0.00,25.0,WeatherDisplay:10.37,2013-03-05 13:25:00,
2013-03-05 07:30:00,28.7,20.1,30.30,WNW,301,12.7,12.7,70,0.00,BKN,,0.00,28.0,WeatherDisplay:10.37,2013-03-05 13:30:00,
2013-03-05 07:35:00,28.8,20.2,30.30,NW,319,11.5,11.5,70,0.00,BKN,,0.00,30.0,WeatherDisplay:10.37,2013-03-05 13:35:00,
2013-03-05 07:40:00,29.0,20.4,30.30,West,270,10.4,10.4,70,0.00,BKN,,0.00,33.0,WeatherDisplay:10.37,2013-03-05 13:40:00,
2013-03-05 07:45:00,29.3,20.4,30.31,West,281,11.5,11.5,69,0.00,BKN,,0.00,39.0,WeatherDisplay:10.37,2013-03-05 13:45:00,
2013-03-05 07:50:00,29.6,20.3,30.31,NW,316,11.5,11.5,68,0.00,BKN,,0.00,54.0,WeatherDisplay:10.37,2013-03-05 13:50:00,
2013-03-05 07:55:00,29.8,20.2,30.31,West,279,13.8,13.8,67,0.00,BKN,,0.00,54.0,WeatherDisplay:10.37,2013-03-05 13:55:00,
2013-03-05 08:00:00,30.1,20.5,30.32,NW,319,12.0,12.0,67,0.00,BKN,,0.00,47.0,WeatherDisplay:10.37,2013-03-05 14:00:00,
2013-03-05 08:05:00,30.5,20.5,30.32,North,5,11.5,11.5,66,0.00,SCT,,0.00,91.0,WeatherDisplay:10.37,2013-03-05 14:05:00,
2013-03-05 08:10:00,30.9,20.5,30.33,WNW,288,11.5,11.5,65,0.00,SCT,,0.00,141.0,WeatherDisplay:10.37,2013-03-05 14:10:00,
2013-03-05 08:15:00,31.3,20.5,30.33,WNW,282,17.3,17.3,64,0.00,FEW,,0.00,135.0,WeatherDisplay:10.37,2013-03-05 14:15:00,
2013-03-05 08:20:00,31.6,20.4,30.33,NNW,328,26.5,26.5,63,0.00,SCT,,0.00,142.0,WeatherDisplay:10.37,2013-03-05 14:20:00,
2013-03-05 08:25:00,31.8,20.3,30.33,West,272,13.8,13.8,62,0.00,SCT,,0.00,149.0,WeatherDisplay:10.37,2013-03-05 14:25:00,
2013-03-05 08:30:00,32.0,20.1,30.33,NW,310,12.7,12.7,61,0.00,SCT,,0.00,156.0,WeatherDisplay:10.37,2013-03-05 14:30:00,
2013-03-05 08:35:00,32.2,19.9,30.33,WNW,288,19.6,19.6,60,0.00,BKN,,0.00,109.0,WeatherDisplay:10.37,2013-03-05 14:35:00,
2013-03-05 08:40:00,32.3,20.0,30.34,West,277,15.0,15.0,60,0.00,BKN,,0.00,49.0,WeatherDisplay:10.37,2013-03-05 14:40:00,
2013-03-05 08:45:00,32.4,20.0,30.34,WNW,299,15.0,15.0,60,0.00,BKN,,0.00,49.0,WeatherDisplay:10.37,2013-03-05 14:45:00,
2013-03-05 08:50:00,32.5,20.1,30.35,WNW,288,13.8,13.8,60,0.00,BKN,,0.00,158.0,WeatherDisplay:10.37,2013-03-05 14:50:00,
2013-03-05 08:55:00,32.7,19.9,30.35,NNW,329,15.0,15.0,59,0.00,SCT,,0.00,207.0,WeatherDisplay:10.37,2013-03-05 14:55:00,
2013-03-05 09:00:00,32.8,20.0,30.35,NW,312,21.9,21.9,59,0.00,BKN,,0.00,123.0,WeatherDisplay:10.37,2013-03-05 15:00:00,
2013-03-05 09:05:00,33.0,20.6,30.35,North,11,18.4,18.4,60,0.00,BKN,,0.00,56.0,WeatherDisplay:10.37,2013-03-05 15:05:00,
2013-03-05 09:10:00,33.2,20.4,30.35,NW,314,21.9,21.9,59,0.00,BKN,,0.00,58.0,WeatherDisplay:10.37,2013-03-05 15:10:00,
2013-03-05 09:15:00,33.2,20.8,30.35,West,271,17.3,17.3,60,0.00,SCT,,0.00,218.0,WeatherDisplay:10.37,2013-03-05 15:15:00,
2013-03-05 09:20:00,33.6,21.2,30.35,WNW,299,19.6,19.6,60,0.00,BKN,,0.00,109.0,WeatherDisplay:10.37,2013-03-05 15:20:00,
2013-03-05 09:25:00,33.8,21.0,30.36,NW,311,20.7,20.7,59,0.00,BKN,,0.00,220.0,WeatherDisplay:10.37,2013-03-05 15:25:00,
2013-03-05 09:30:00,33.9,20.3,30.35,NW,306,20.7,20.7,57,0.00,FEW,,0.00,341.0,WeatherDisplay:10.37,2013-03-05 15:30:00,
2013-03-05 09:35:00,34.1,20.4,30.36,NW,313,19.6,19.6,57,0.00,FEW,,0.00,311.0,WeatherDisplay:10.37,2013-03-05 15:35:00,
2013-03-05 09:40:00,34.1,20.9,30.35,NW,321,12.7,12.7,58,0.00,SCT,,0.00,301.0,WeatherDisplay:10.37,2013-03-05 15:40:00,
2013-03-05 09:45:00,34.4,20.7,30.36,NW,309,17.3,17.3,57,0.00,SCT,,0.00,325.0,WeatherDisplay:10.37,2013-03-05 15:45:00,
2013-03-05 09:50:00,34.7,21.4,30.36,NW,304,19.0,19.0,58,0.00,FEW,,0.00,413.0,WeatherDisplay:10.37,2013-03-05 15:50:00,
2013-03-05 09:55:00,35.1,21.4,30.35,NW,309,12.7,12.7,57,0.00,CLR,,0.00,418.0,WeatherDisplay:10.37,2013-03-05 15:55:00,
2013-03-05 10:00:00,35.5,21.3,30.36,WNW,294,15.0,15.0,56,0.00,SCT,,0.00,392.0,WeatherDisplay:10.37,2013-03-05 16:00:00,
2013-03-05 10:05:00,35.6,20.6,30.36,WNW,294,19.6,19.6,54,0.00,SCT,,0.00,323.0,WeatherDisplay:10.37,2013-03-05 16:05:00,
2013-03-05 10:10:00,35.5,21.3,30.36,NNW,331,14.0,14.0,56,0.00,SCT,,0.00,390.0,WeatherDisplay:10.37,2013-03-05 16:10:00,
2013-03-05 10:15:00,35.7,21.9,30.36,West,276,13.8,13.8,57,0.00,SCT,,0.00,315.0,WeatherDisplay:10.37,2013-03-05 16:15:00,
2013-03-05 10:20:00,36.1,21.9,30.37,WNW,292,11.5,11.5,56,0.00,SCT,,0.00,504.0,WeatherDisplay:10.37,2013-03-05 16:20:00,
2013-03-05 10:25:00,36.1,21.0,30.37,WNW,290,17.3,17.3,54,0.00,FEW,,0.00,399.0,WeatherDisplay:10.37,2013-03-05 16:25:00,
2013-03-05 10:30:00,36.4,21.3,30.37,NW,322,18.0,18.0,54,0.00,SCT,,0.00,499.0,WeatherDisplay:10.37,2013-03-05 16:30:00,
2013-03-05 10:35:00,36.4,20.4,30.37,NNW,329,16.1,16.1,52,0.00,CLR,,0.00,501.0,WeatherDisplay:10.37,2013-03-05 16:35:00,
2013-03-05 10:40:00,36.3,20.8,30.37,NW,326,20.0,20.0,53,0.00,FEW,,0.00,598.0,WeatherDisplay:10.37,2013-03-05 16:40:00,
2013-03-05 10:45:00,36.5,21.0,30.37,NW,313,17.3,17.3,53,0.00,CLR,,0.00,554.0,WeatherDisplay:10.37,2013-03-05 16:45:00,
2013-03-05 10:50:00,36.8,21.7,30.37,NW,315,21.0,21.0,54,0.00,CLR,,0.00,499.0,WeatherDisplay:10.37,2013-03-05 16:50:00,
2013-03-05 10:55:00,36.5,21.4,30.37,NW,321,19.6,19.6,54,0.00,SCT,,0.00,461.0,WeatherDisplay:10.37,2013-03-05 16:55:00,
2013-03-05 11:00:00,36.4,20.4,30.37,NW,324,20.7,20.7,52,0.00,SCT,,0.00,471.0,WeatherDisplay:10.37,2013-03-05 17:00:00,
2013-03-05 11:05:00,36.6,21.5,30.37,NW,317,19.6,19.6,54,0.00,CLR,,0.00,642.0,WeatherDisplay:10.37,2013-03-05 17:05:00,
2013-03-05 11:10:00,37.4,21.8,30.37,NW,326,20.0,20.0,53,0.00,CLR,,0.00,680.0,WeatherDisplay:10.37,2013-03-05 17:10:00,
2013-03-05 11:15:00,37.7,21.6,30.37,WSW,242,23.0,23.0,52,0.00,CLR,,0.00,691.0,WeatherDisplay:10.37,2013-03-05 17:15:00,
2013-03-05 11:20:00,37.8,21.7,30.37,NW,306,19.6,19.6,52,0.00,CLR,,0.00,698.0,WeatherDisplay:10.37,2013-03-05 17:20:00,
2013-03-05 11:25:00,37.7,21.2,30.37,NNW,330,23.0,23.0,51,0.00,CLR,,0.00,707.0,WeatherDisplay:10.37,2013-03-05 17:25:00,
2013-03-05 11:30:00,37.4,20.9,30.36,North,355,20.7,20.7,51,0.00,CLR,,0.00,712.0,WeatherDisplay:10.37,2013-03-05 17:30:00,
2013-03-05 11:35:00,37.4,21.4,30.36,NNW,343,18.4,18.4,52,0.00,CLR,,0.00,721.0,WeatherDisplay:10.37,2013-03-05 17:35:00,
2013-03-05 11:40:00,37.5,20.5,30.36,NW,306,21.9,21.9,50,0.00,CLR,,0.00,726.0,WeatherDisplay:10.37,2013-03-05 17:40:00,
2013-03-05 11:45:00,38.0,21.5,30.37,NW,315,16.1,16.1,51,0.00,CLR,,0.00,731.0,WeatherDisplay:10.37,2013-03-05 17:45:00,
2013-03-05 11:50:00,38.3,22.2,30.37,NNW,337,12.7,12.7,52,0.00,CLR,,0.00,738.0,WeatherDisplay:10.37,2013-03-05 17:50:00,
2013-03-05 11:55:00,38.5,22.4,30.37,WNW,300,21.9,21.9,52,0.00,CLR,,0.00,742.0,WeatherDisplay:10.37,2013-03-05 17:55:00,
2013-03-05 12:00:00,38.5,21.5,30.38,NW,306,18.4,18.4,50,0.00,CLR,,0.00,747.0,WeatherDisplay:10.37,2013-03-05 18:00:00,
2013-03-05 12:05:00,38.7,21.6,30.37,NNW,340,19.6,19.6,50,0.00,CLR,,0.00,751.0,WeatherDisplay:10.37,2013-03-05 18:05:00,
2013-03-05 12:10:00,38.6,21.5,30.38,NW,316,19.6,19.6,50,0.00,CLR,,0.00,754.0,WeatherDisplay:10.37,2013-03-05 18:10:00,
2013-03-05 12:15:00,38.7,22.1,30.37,NNW,332,16.1,16.1,51,0.00,CLR,,0.00,754.0,WeatherDisplay:10.37,2013-03-05 18:15:00,
2013-03-05 12:20:00,39.1,23.8,30.37,West,265,12.0,12.0,54,0.00,CLR,,0.00,758.0,WeatherDisplay:10.37,2013-03-05 18:20:00,
2013-03-05 12:25:00,40.0,23.3,30.37,WNW,291,17.3,17.3,51,0.00,CLR,,0.00,763.0,WeatherDisplay:10.37,2013-03-05 18:25:00,
2013-03-05 12:30:00,40.1,23.4,30.38,WNW,291,15.0,15.0,51,0.00,CLR,,0.00,761.0,WeatherDisplay:10.37,2013-03-05 18:30:00,
2013-03-05 12:35:00,40.2,23.5,30.38,WNW,294,11.5,11.5,51,0.00,CLR,,0.00,766.0,WeatherDisplay:10.37,2013-03-05 18:35:00,
2013-03-05 12:40:00,40.1,23.4,30.38,NW,306,18.4,18.4,51,0.00,CLR,,0.00,765.0,WeatherDisplay:10.37,2013-03-05 18:40:00,
2013-03-05 12:45:00,40.1,23.4,30.38,WNW,294,13.8,13.8,51,0.00,CLR,,0.00,703.0,WeatherDisplay:10.37,2013-03-05 18:45:00,
2013-03-05 12:50:00,40.2,23.5,30.37,NW,311,24.2,24.2,51,0.00,FEW,,0.00,570.0,WeatherDisplay:10.37,2013-03-05 18:50:00,
2013-03-05 12:55:00,40.2,23.5,30.37,NW,306,17.3,17.3,51,0.00,CLR,,0.00,703.0,WeatherDisplay:10.37,2013-03-05 18:55:00,
2013-03-05 13:00:00,40.1,23.4,30.37,NW,322,23.0,23.0,51,0.00,SCT,,0.00,487.0,WeatherDisplay:10.37,2013-03-05 19:00:00,
2013-03-05 13:05:00,40.3,24.1,30.37,NW,309,18.4,18.4,52,0.00,CLR,,0.00,722.0,WeatherDisplay:10.37,2013-03-05 19:05:00,
2013-03-05 13:10:00,40.5,24.2,30.37,West,278,15.0,15.0,52,0.00,CLR,,0.00,754.0,WeatherDisplay:10.37,2013-03-05 19:10:00,
2013-03-05 13:15:00,41.0,24.2,30.37,NW,304,13.8,13.8,51,0.00,CLR,,0.00,722.0,WeatherDisplay:10.37,2013-03-05 19:15:00,
2013-03-05 13:20:00,41.1,23.9,30.37,WNW,297,12.7,12.7,50,0.00,CLR,,0.00,571.0,WeatherDisplay:10.37,2013-03-05 19:20:00,
2013-03-05 13:25:00,40.9,23.7,30.36,West,281,17.3,17.3,50,0.00,CLR,,0.00,735.0,WeatherDisplay:10.37,2013-03-05 19:25:00,
2013-03-05 13:30:00,40.8,23.1,30.36,NNW,339,21.9,21.9,49,0.00,CLR,,0.00,745.0,WeatherDisplay:10.37,2013-03-05 19:30:00,
2013-03-05 13:35:00,40.9,24.1,30.36,NW,304,18.4,18.4,51,0.00,SCT,,0.00,411.0,WeatherDisplay:10.37,2013-03-05 19:35:00,
2013-03-05 13:40:00,40.7,24.0,30.36,WNW,296,19.6,19.6,51,0.00,CLR,,0.00,643.0,WeatherDisplay:10.37,2013-03-05 19:40:00,
2013-03-05 13:45:00,41.2,24.9,30.36,West,267,16.1,16.1,52,0.00,SCT,,0.00,545.0,WeatherDisplay:10.37,2013-03-05 19:45:00,
2013-03-05 13:50:00,41.5,24.2,30.36,NNW,328,19.6,19.6,50,0.00,CLR,,0.00,733.0,WeatherDisplay:10.37,2013-03-05 19:50:00,
2013-03-05 13:55:00,41.3,24.0,30.36,WNW,295,18.4,18.4,50,0.00,CLR,,0.00,635.0,WeatherDisplay:10.37,2013-03-05 19:55:00,
2013-03-05 14:00:00,41.5,24.2,30.35,WNW,290,18.4,18.4,50,0.00,CLR,,0.00,626.0,WeatherDisplay:10.37,2013-03-05 20:00:00,
2013-03-05 14:05:00,41.4,25.1,30.35,WNW,302,11.5,11.5,52,0.00,CLR,,0.00,601.0,WeatherDisplay:10.37,2013-03-05 20:05:00,
2013-03-05 14:10:00,41.4,24.6,30.35,NW,319,15.0,15.0,51,0.00,CLR,,0.00,680.0,WeatherDisplay:10.37,2013-03-05 20:10:00,
2013-03-05 14:15:00,41.4,24.6,30.35,West,280,16.1,16.1,51,0.00,CLR,,0.00,652.0,WeatherDisplay:10.37,2013-03-05 20:15:00,
2013-03-05 14:20:00,41.5,24.2,30.36,NW,317,19.6,19.6,50,0.00,CLR,,0.00,694.0,WeatherDisplay:10.37,2013-03-05 20:20:00,
2013-03-05 14:25:00,41.4,25.1,30.35,NW,320,11.5,11.5,52,0.00,CLR,,0.00,636.0,WeatherDisplay:10.37,2013-03-05 20:25:00,
2013-03-05 14:30:00,41.7,24.9,30.36,WNW,287,12.7,12.7,51,0.00,CLR,,0.00,679.0,WeatherDisplay:10.37,2013-03-05 20:30:00,
2013-03-05 14:35:00,41.8,25.0,30.36,NW,306,17.3,17.3,51,0.00,CLR,,0.00,668.0,WeatherDisplay:10.37,2013-03-05 20:35:00,
2013-03-05 14:40:00,41.8,24.0,30.36,WNW,290,19.6,19.6,49,0.00,CLR,,0.00,663.0,WeatherDisplay:10.37,2013-03-05 20:40:00,
2013-03-05 14:45:00,41.8,24.5,30.36,NW,319,11.5,11.5,50,0.00,CLR,,0.00,652.0,WeatherDisplay:10.37,2013-03-05 20:45:00,
2013-03-05 14:50:00,42.1,23.8,30.36,WNW,302,15.0,15.0,48,0.00,CLR,,0.00,642.0,WeatherDisplay:10.37,2013-03-05 20:50:00,
2013-03-05 14:55:00,42.2,23.4,30.36,WNW,299,15.0,15.0,47,0.00,CLR,,0.00,633.0,WeatherDisplay:10.37,2013-03-05 20:55:00,
2013-03-05 15:00:00,42.2,23.9,30.36,WNW,302,18.4,18.4,48,0.00,CLR,,0.00,621.0,WeatherDisplay:10.37,2013-03-05 21:00:00,
2013-03-05 15:05:00,42.4,23.6,30.36,NNW,337,16.1,16.1,47,0.00,CLR,,0.00,610.0,WeatherDisplay:10.37,2013-03-05 21:05:00,
2013-03-05 15:10:00,42.1,23.3,30.36,NW,321,12.0,12.0,47,0.00,CLR,,0.00,598.0,WeatherDisplay:10.37,2013-03-05 21:10:00,
2013-03-05 15:15:00,42.1,22.8,30.36,WNW,300,17.3,17.3,46,0.00,CLR,,0.00,585.0,WeatherDisplay:10.37,2013-03-05 21:15:00,
2013-03-05 15:20:00,42.1,22.8,30.36,NW,316,18.4,18.4,46,0.00,CLR,,0.00,573.0,WeatherDisplay:10.37,2013-03-05 21:20:00,
2013-03-05 15:25:00,42.1,22.8,30.36,NW,306,19.6,19.6,46,0.00,CLR,,0.00,563.0,WeatherDisplay:10.37,2013-03-05 21:25:00,
2013-03-05 15:30:00,42.4,24.1,30.35,West,273,12.7,12.7,48,0.00,CLR,,0.00,547.0,WeatherDisplay:10.37,2013-03-05 21:30:00,
2013-03-05 15:35:00,42.8,23.9,30.35,WNW,284,17.3,17.3,47,0.00,CLR,,0.00,531.0,WeatherDisplay:10.37,2013-03-05 21:35:00,
2013-03-05 15:40:00,42.8,23.9,30.35,NW,309,14.0,14.0,47,0.00,CLR,,0.00,520.0,WeatherDisplay:10.37,2013-03-05 21:40:00,
2013-03-05 15:45:00,42.7,23.3,30.35,WNW,295,18.4,18.4,46,0.00,CLR,,0.00,508.0,WeatherDisplay:10.37,2013-03-05 21:45:00,
2013-03-05 15:50:00,42.7,23.8,30.35,NW,317,11.5,11.5,47,0.00,CLR,,0.00,497.0,WeatherDisplay:10.37,2013-03-05 21:50:00,
2013-03-05 15:55:00,42.7,23.3,30.35,NW,315,13.8,13.8,46,0.00,CLR,,0.00,480.0,WeatherDisplay:10.37,2013-03-05 21:55:00,
2013-03-05 16:00:00,42.7,23.8,30.35,NW,310,11.5,11.5,47,0.00,CLR,,0.00,464.0,WeatherDisplay:10.37,2013-03-05 22:00:00,
2013-03-05 16:05:00,42.5,23.2,30.35,NW,323,19.6,19.6,46,0.00,CLR,,0.00,450.0,WeatherDisplay:10.37,2013-03-05 22:05:00,
2013-03-05 16:10:00,42.5,23.7,30.35,WNW,302,11.5,11.5,47,0.00,CLR,,0.00,434.0,WeatherDisplay:10.37,2013-03-05 22:10:00,
2013-03-05 16:15:00,42.3,23.0,30.35,WNW,300,15.0,15.0,46,0.00,CLR,,0.00,418.0,WeatherDisplay:10.37,2013-03-05 22:15:00,
2013-03-05 16:20:00,42.4,23.6,30.35,NNW,342,19.6,19.6,47,0.00,CLR,,0.00,404.0,WeatherDisplay:10.37,2013-03-05 22:20:00,
2013-03-05 16:25:00,42.3,22.4,30.35,NW,307,21.9,21.9,45,0.00,CLR,,0.00,388.0,WeatherDisplay:10.37,2013-03-05 22:25:00,
2013-03-05 16:30:00,42.1,22.8,30.35,NNW,340,17.3,17.3,46,0.00,CLR,,0.00,374.0,WeatherDisplay:10.37,2013-03-05 22:30:00,
2013-03-05 16:35:00,41.9,22.6,30.35,North,355,16.1,16.1,46,0.00,CLR,,0.00,355.0,WeatherDisplay:10.37,2013-03-05 22:35:00,
2013-03-05 16:40:00,41.7,22.9,30.35,NW,325,17.3,17.3,47,0.00,CLR,,0.00,339.0,WeatherDisplay:10.37,2013-03-05 22:40:00,
2013-03-05 16:45:00,41.5,22.7,30.35,NW,309,15.0,15.0,47,0.00,CLR,,0.00,318.0,WeatherDisplay:10.37,2013-03-05 22:45:00,
2013-03-05 16:50:00,41.4,22.7,30.35,NW,321,17.3,17.3,47,0.00,CLR,,0.00,302.0,WeatherDisplay:10.37,2013-03-05 22:50:00,
2013-03-05 16:55:00,41.2,22.5,30.35,North,5,18.4,18.4,47,0.00,SCT,,0.00,56.0,WeatherDisplay:10.37,2013-03-05 22:55:00,
2013-03-05 17:00:00,41.2,22.5,30.35,NNW,338,19.6,19.6,47,0.00,BKN,,0.00,47.0,WeatherDisplay:10.37,2013-03-05 23:00:00,
2013-03-05 17:05:00,41.0,22.8,30.35,WNW,290,18.4,18.4,48,0.00,BKN,,0.00,46.0,WeatherDisplay:10.37,2013-03-05 23:05:00,
2013-03-05 17:10:00,40.8,22.6,30.35,NW,304,12.7,12.7,48,0.00,BKN,,0.00,44.0,WeatherDisplay:10.37,2013-03-05 23:10:00,
2013-03-05 17:15:00,40.9,23.7,30.36,West,269,13.0,13.0,50,0.00,BKN,,0.00,42.0,WeatherDisplay:10.37,2013-03-05 23:15:00,
2013-03-05 17:20:00,40.9,22.7,30.36,NNW,334,15.0,15.0,48,0.00,BKN,,0.00,40.0,WeatherDisplay:10.37,2013-03-05 23:20:00,
2013-03-05 17:25:00,40.7,23.0,30.36,NW,325,15.0,15.0,49,0.00,BKN,,0.00,39.0,WeatherDisplay:10.37,2013-03-05 23:25:00,
2013-03-05 17:30:00,40.6,23.4,30.36,NW,319,12.7,12.7,50,0.00,BKN,,0.00,37.0,WeatherDisplay:10.37,2013-03-05 23:30:00,
2013-03-05 17:35:00,40.5,23.3,30.36,NNW,340,12.7,12.7,50,0.00,BKN,,0.00,35.0,WeatherDisplay:10.37,2013-03-05 23:35:00,
2013-03-05 17:40:00,40.4,22.7,30.36,NW,304,6.9,6.9,49,0.00,BKN,,0.00,33.0,WeatherDisplay:10.37,2013-03-05 23:40:00,
2013-03-05 17:45:00,40.3,22.6,30.36,NW,305,13.8,13.8,49,0.00,BKN,,0.00,30.0,WeatherDisplay:10.37,2013-03-05 23:45:00,
2013-03-05 17:50:00,40.2,23.0,30.36,North,360,11.5,11.5,50,0.00,BKN,,0.00,28.0,WeatherDisplay:10.37,2013-03-05 23:50:00,
2013-03-05 17:55:00,40.0,22.8,30.37,NNW,341,13.8,13.8,50,0.00,BKN,,0.00,25.0,WeatherDisplay:10.37,2013-03-05 23:55:00,
2013-03-05 18:00:00,39.9,22.7,30.37,NNW,329,13.8,13.8,50,0.00,BKN,,0.00,23.0,WeatherDisplay:10.37,2013-03-06 00:00:00,
2013-03-05 18:05:00,39.7,23.0,30.37,NW,308,11.5,11.5,51,0.00,BKN,,0.00,19.0,WeatherDisplay:10.37,2013-03-06 00:05:00,
2013-03-05 18:10:00,39.5,22.8,30.37,NW,304,10.4,10.4,51,0.00,BKN,,0.00,16.0,WeatherDisplay:10.37,2013-03-06 00:10:00,
2013-03-05 18:15:00,39.3,23.6,30.37,NW,313,10.4,10.4,53,0.00,BKN,,0.00,12.0,WeatherDisplay:10.37,2013-03-06 00:15:00,
2013-03-05 18:20:00,39.0,23.3,30.37,WNW,290,11.5,11.5,53,0.00,SCT,,0.00,9.0,WeatherDisplay:10.37,2013-03-06 00:20:00,
2013-03-05 18:25:00,38.8,23.1,30.38,NW,321,9.2,9.2,53,0.00,CLR,,0.00,5.0,WeatherDisplay:10.37,2013-03-06 00:25:00,
2013-03-05 18:30:00,38.6,22.9,30.37,NW,324,11.5,11.5,53,0.00,CLR,,0.00,0.0,WeatherDisplay:10.37,2013-03-06 00:30:00,
2013-03-05 18:35:00,38.5,23.3,30.38,West,279,8.0,8.0,54,0.00,CLR,,0.00,0.0,WeatherDisplay:10.37,2013-03-06 00:35:00,
2013-03-05 18:40:00,38.3,23.1,30.38,NNW,344,10.4,10.4,54,0.00,CLR,,0.00,0.0,WeatherDisplay:10.37,2013-03-06 00:40:00,
2013-03-05 18:45:00,38.1,22.9,30.39,NW,306,6.9,6.9,54,0.00,CLR,,0.00,0.0,WeatherDisplay:10.37,2013-03-06 00:45:00,
2013-03-05 18:50:00,37.9,23.2,30.39,NW,318,9.2,9.2,55,0.00,CLR,,0.00,0.0,WeatherDisplay:10.37,2013-03-06 00:50:00,
2013-03-05 18:55:00,37.7,23.0,30.39,NW,318,8.1,8.1,55,0.00,CLR,,0.00,0.0,WeatherDisplay:10.37,2013-03-06 00:55:00,
2013-03-05 19:00:00,37.5,23.2,30.39,WNW,294,8.1,8.1,56,0.00,CLR,,0.00,0.0,WeatherDisplay:10.37,2013-03-06 01:00:00,
2013-03-05 19:05:00,37.4,23.1,30.39,WNW,284,10.4,10.4,56,0.00,CLR,,0.00,0.0,WeatherDisplay:10.37,2013-03-06 01:05:00,
2013-03-05 19:10:00,37.2,23.4,30.39,North,5,4.6,4.6,57,0.00,CLR,,0.00,0.0,WeatherDisplay:10.37,2013-03-06 01:10:00,
2013-03-05 19:15:00,37.1,23.3,30.39,NW,322,9.2,9.2,57,0.00,CLR,,0.00,0.0,WeatherDisplay:10.37,2013-03-06 01:15:00,
2013-03-05 19:20:00,36.9,23.1,30.40,NW,316,6.9,6.9,57,0.00,CLR,,0.00,0.0,WeatherDisplay:10.37,2013-03-06 01:20:00,
2013-03-05 19:25:00,36.7,23.3,30.39,NW,326,5.8,5.8,58,0.00,CLR,,0.00,0.0,WeatherDisplay:10.37,2013-03-06 01:25:00,
2013-03-05 19:30:00,36.6,23.6,30.39,NW,320,7.0,7.0,59,0.00,CLR,,0.00,0.0,WeatherDisplay:10.37,2013-03-06 01:30:00,
2013-03-05 19:35:00,36.4,23.4,30.40,WNW,299,5.0,5.0,59,0.00,CLR,,0.00,0.0,WeatherDisplay:10.37,2013-03-06 01:35:00,
2013-03-05 19:40:00,36.1,23.5,30.40,NW,313,5.0,5.0,60,0.00,CLR,,0.00,0.0,WeatherDisplay:10.37,2013-03-06 01:40:00,
2013-03-05 19:45:00,35.9,23.7,30.40,NNW,344,8.0,8.0,61,0.00,CLR,,0.00,0.0,WeatherDisplay:10.37,2013-03-06 01:45:00,
2013-03-05 19:50:00,35.7,23.6,30.40,WNW,301,5.8,5.8,61,0.00,CLR,,0.00,0.0,WeatherDisplay:10.37,2013-03-06 01:50:00,
2013-03-05 19:55:00,35.5,23.8,30.40,WNW,300,5.8,5.8,62,0.00,CLR,,0.00,0.0,WeatherDisplay:10.37,2013-03-06 01:55:00,
2013-03-05 20:00:00,35.3,24.0,30.39,NW,306,5.8,5.8,63,0.00,CLR,,0.00,0.0,WeatherDisplay:10.37,2013-03-06 02:00:00,
2013-03-05 20:05:00,35.1,24.1,30.40,NW,308,5.8,5.8,64,0.00,CLR,,0.00,0.0,WeatherDisplay:10.37,2013-03-06 02:05:00,
2013-03-05 20:10:00,34.9,23.9,30.40,WNW,285,4.6,4.6,64,0.00,CLR,,0.00,0.0,WeatherDisplay:10.37,2013-03-06 02:10:00,
2013-03-05 20:15:00,34.7,24.1,30.40,NW,314,3.5,3.5,65,0.00,CLR,,0.00,0.0,WeatherDisplay:10.37,2013-03-06 02:15:00,
2013-03-05 20:20:00,34.6,24.0,30.40,NW,321,6.0,6.0,65,0.00,CLR,,0.00,0.0,WeatherDisplay:10.37,2013-03-06 02:20:00,
2013-03-05 20:25:00,34.4,23.8,30.40,NNW,332,5.8,5.8,65,0.00,CLR,,0.00,0.0,WeatherDisplay:10.37,2013-03-06 02:25:00,
2013-03-05 20:30:00,34.4,23.8,30.40,NW,308,4.6,4.6,65,0.00,CLR,,0.00,0.0,WeatherDisplay:10.37,2013-03-06 02:30:00,
2013-03-05 20:35:00,34.3,23.7,30.40,WNW,294,5.8,5.8,65,0.00,CLR,,0.00,0.0,WeatherDisplay:10.37,2013-03-06 02:35:00,
2013-03-05 20:40:00,34.2,23.7,30.40,NNW,340,4.6,4.6,65,0.00,CLR,,0.00,0.0,WeatherDisplay:10.37,2013-03-06 02:40:00,
2013-03-05 20:45:00,34.0,23.5,30.40,NW,316,4.6,4.6,65,0.00,CLR,,0.00,0.0,WeatherDisplay:10.37,2013-03-06 02:45:00,
2013-03-05 20:50:00,33.9,23.7,30.40,WNW,288,5.0,5.0,66,0.00,CLR,,0.00,0.0,WeatherDisplay:10.37,2013-03-06 02:50:00,
2013-03-05 20:55:00,33.9,23.7,30.41,NW,326,5.8,5.8,66,0.00,CLR,,0.00,0.0,WeatherDisplay:10.37,2013-03-06 02:55:00,
2013-03-05 21:00:00,33.8,23.6,30.41,NW,316,3.5,3.5,66,0.00,CLR,,0.00,0.0,WeatherDisplay:10.37,2013-03-06 03:00:00,
2013-03-05 21:05:00,33.8,23.6,30.41,WNW,291,3.0,3.0,66,0.00,CLR,,0.00,0.0,WeatherDisplay:10.37,2013-03-06 03:05:00,
2013-03-05 21:10:00,33.6,23.4,30.41,WNW,289,4.0,4.0,66,0.00,CLR,,0.00,0.0,WeatherDisplay:10.37,2013-03-06 03:10:00,
2013-03-05 21:15:00,33.3,23.5,30.41,WNW,289,2.3,2.3,67,0.00,CLR,,0.00,0.0,WeatherDisplay:10.37,2013-03-06 03:15:00,
2013-03-05 21:20:00,33.0,23.6,30.42,WNW,303,2.3,2.3,68,0.00,CLR,,0.00,0.0,WeatherDisplay:10.37,2013-03-06 03:20:00,
2013-03-05 21:25:00,32.8,23.4,30.42,WNW,300,1.2,1.2,68,0.00,CLR,,0.00,0.0,WeatherDisplay:10.37,2013-03-06 03:25:00,
2013-03-05 21:30:00,32.5,23.5,30.42,WNW,291,2.3,2.3,69,0.00,CLR,,0.00,0.0,WeatherDisplay:10.37,2013-03-06 03:30:00,
2013-03-05 21:35:00,32.3,23.6,30.43,WNW,291,2.0,2.0,70,0.00,CLR,,0.00,0.0,WeatherDisplay:10.37,2013-03-06 03:35:00,
2013-03-05 21:40:00,32.0,23.3,30.43,WNW,291,0.0,0.0,70,0.00,CLR,,0.00,0.0,WeatherDisplay:10.37,2013-03-06 03:40:00,
2013-03-05 21:45:00,31.6,23.3,30.43,WNW,291,1.2,1.2,71,0.00,CLR,,0.00,0.0,WeatherDisplay:10.37,2013-03-06 03:45:00,
2013-03-05 21:50:00,31.4,23.4,30.43,WNW,291,2.3,2.3,72,0.00,CLR,,0.00,0.0,WeatherDisplay:10.37,2013-03-06 03:50:00,
2013-03-05 21:55:00,31.1,23.5,30.43,WNW,291,2.0,2.0,73,0.00,CLR,,0.00,0.0,WeatherDisplay:10.37,2013-03-06 03:55:00,
2013-03-05 22:00:00,30.7,23.1,30.43,WNW,291,0.0,0.0,73,0.00,CLR,,0.00,0.0,WeatherDisplay:10.37,2013-03-06 04:00:00,
2013-03-05 22:05:00,30.4,23.1,30.43,WNW,291,1.2,1.2,74,0.00,CLR,,0.00,0.0,WeatherDisplay:10.37,2013-03-06 04:05:00,
2013-03-05 22:10:00,30.1,23.1,30.44,WNW,291,2.3,2.3,75,0.00,CLR,,0.00,0.0,WeatherDisplay:10.37,2013-03-06 04:10:00,
2013-03-05 22:15:00,29.8,22.8,30.44,WNW,291,1.0,1.0,75,0.00,CLR,,0.00,0.0,WeatherDisplay:10.37,2013-03-06 04:15:00,
2013-03-05 22:20:00,29.6,23.0,30.44,WNW,291,0.0,0.0,76,0.00,CLR,,0.00,0.0,WeatherDisplay:10.37,2013-03-06 04:20:00,
2013-03-05 22:25:00,29.4,22.8,30.44,WNW,291,2.3,2.3,76,0.00,CLR,,0.00,0.0,WeatherDisplay:10.37,2013-03-06 04:25:00,
2013-03-05 22:30:00,29.2,22.6,30.44,WNW,291,3.5,3.5,76,0.00,CLR,,0.00,0.0,WeatherDisplay:10.37,2013-03-06 04:30:00,
2013-03-05 22:35:00,29.0,22.7,30.44,WNW,292,3.5,3.5,77,0.00,CLR,,0.00,0.0,WeatherDisplay:10.37,2013-03-06 04:35:00,
2013-03-05 22:40:00,28.9,22.6,30.44,WNW,292,2.0,2.0,77,0.00,CLR,,0.00,0.0,WeatherDisplay:10.37,2013-03-06 04:40:00,
2013-03-05 22:45:00,28.8,22.5,30.44,WNW,292,0.0,0.0,77,0.00,CLR,,0.00,0.0,WeatherDisplay:10.37,2013-03-06 04:45:00,
2013-03-05 22:50:00,28.6,22.3,30.44,WNW,292,1.0,1.0,77,0.00,CLR,,0.00,0.0,WeatherDisplay:10.37,2013-03-06 04:50:00,
2013-03-05 22:55:00,28.4,22.4,30.44,WNW,292,1.2,1.2,78,0.00,CLR,,0.00,0.0,WeatherDisplay:10.37,2013-03-06 04:55:00,
2013-03-05 23:00:00,28.3,22.6,30.44,WNW,292,2.3,2.3,79,0.00,CLR,,0.00,0.0,WeatherDisplay:10.37,2013-03-06 05:00:00,
2013-03-05 23:05:00,28.1,22.4,30.44,WNW,292,2.3,2.3,79,0.00,CLR,,0.00,0.0,WeatherDisplay:10.37,2013-03-06 05:05:00,
2013-03-05 23:10:00,28.0,22.3,30.44,WNW,292,2.3,2.3,79,0.00,CLR,,0.00,0.0,WeatherDisplay:10.37,2013-03-06 05:10:00,
2013-03-05 23:15:00,27.8,22.1,30.44,WNW,292,2.0,2.0,79,0.00,CLR,,0.00,0.0,WeatherDisplay:10.37,2013-03-06 05:15:00,
2013-03-05 23:20:00,27.8,22.4,30.44,WNW,292,1.2,1.2,80,0.00,CLR,,0.00,0.0,WeatherDisplay:10.37,2013-03-06 05:20:00,
2013-03-05 23:25:00,27.7,22.3,30.44,WNW,292,0.0,0.0,80,0.00,CLR,,0.00,0.0,WeatherDisplay:10.37,2013-03-06 05:25:00,
2013-03-05 23:30:00,27.7,22.3,30.44,WNW,292,2.3,2.3,80,0.00,CLR,,0.00,0.0,WeatherDisplay:10.37,2013-03-06 05:30:00,
2013-03-05 23:35:00,27.6,22.5,30.45,WNW,292,0.0,0.0,81,0.00,CLR,,0.00,0.0,WeatherDisplay:10.37,2013-03-06 05:35:00,
2013-03-05 23:40:00,27.5,22.4,30.45,WNW,292,0.0,0.0,81,0.00,CLR,,0.00,0.0,WeatherDisplay:10.37,2013-03-06 05:40:00,
2013-03-05 23:45:00,27.5,22.4,30.44,WNW,292,2.3,2.3,81,0.00,CLR,,0.00,0.0,WeatherDisplay:10.37,2013-03-06 05:45:00,
2013-03-05 23:50:00,27.4,22.6,30.44,WNW,292,2.3,2.3,82,0.00,CLR,,0.00,0.0,WeatherDisplay:10.37,2013-03-06 05:50:00,
2013-03-05 23:55:00,27.2,22.1,30.44,WNW,292,0.0,0.0,81,0.00,CLR,,0.00,0.0,WeatherDisplay:10.37,2013-03-06 05:55:00,